Latest Weather Observations for Thredbo Top Station
Issued at 1:13 pm EST Friday 4 September 2026 (issued every 10 minutes, with the page automatically refreshed every 10 minutes)
| Station Details | ID: 071032 | Name: THREDBO AWS | Lat: -36.49 | Lon: 148.29 | Height: 1957.0 m |
| Date/Time EST |
Temp °C |
App Temp °C |
Dew Point °C |
Rel Hum % |
Delta-T °C |
Wind | Press QNH hPa |
Press MSL hPa |
Rain since 9am mm |
|||||
|---|---|---|---|---|---|---|---|---|---|---|---|---|---|---|
| Dir | Spd km/h |
Gust km/h |
Spd kts |
Gust kts |
||||||||||
| 04/01:01pm | 2.2 | -11.0 | -0.1 | 85 | 1.0 | NW | 59 | 74 | 32 | 40 | 1017.9 | 1018.9 | 0.0 | |
| 04/01:00pm | 2.3 | -10.8 | 0.4 | 87 | 0.8 | NW | 59 | 74 | 32 | 40 | 1018.0 | 1019.0 | 0.0 | |
| 04/12:30pm | 2.1 | -10.8 | -0.6 | 82 | 1.1 | NW | 57 | 78 | 31 | 42 | 1017.7 | 1018.6 | 0.0 | |
| 04/12:00pm | 1.8 | -12.3 | -1.1 | 81 | 1.2 | NW | 63 | 87 | 34 | 47 | 1018.2 | 1019.1 | 0.0 | |
| 04/11:51am | 1.5 | -12.6 | -1.4 | 81 | 1.2 | NW | 63 | 87 | 34 | 47 | 1017.0 | 1017.8 | 0.0 | |
| 04/11:42am | 1.7 | -12.7 | -0.4 | 86 | 0.9 | NW | 65 | 78 | 35 | 42 | 1017.9 | 1018.9 | 0.0 | |
| 04/11:30am | 1.0 | -13.1 | -0.9 | 87 | 0.8 | NW | 63 | 85 | 34 | 46 | 1017.7 | 1018.6 | 0.0 | |
| 04/11:00am | 0.2 | -14.9 | -0.2 | 97 | 0.2 | NW | 69 | 85 | 37 | 46 | 1018.8 | 1019.7 | 0.0 | |
| 04/10:30am | 0.7 | -13.0 | -0.6 | 91 | 0.5 | NW | 61 | 82 | 33 | 44 | 1018.3 | 1019.2 | 0.0 | |
| 04/10:04am | 0.7 | -12.2 | -0.4 | 92 | 0.5 | NW | 57 | 78 | 31 | 42 | 1018.5 | 1019.5 | 0.0 | |
| 04/10:00am | 0.1 | -13.2 | -1.0 | 92 | 0.4 | NW | 59 | 74 | 32 | 40 | 1018.2 | 1019.1 | 0.0 | |
| 04/09:59am | 0.6 | -12.7 | -0.5 | 92 | 0.5 | NW | 59 | 74 | 32 | 40 | 1018.5 | 1019.5 | 0.0 | |
| 04/09:30am | 0.1 | -13.6 | -0.6 | 95 | 0.3 | NW | 61 | 80 | 33 | 43 | 1018.5 | 1019.5 | 0.0 | |
| 04/09:00am | 0.3 | -12.7 | -1.0 | 91 | 0.5 | NW | 57 | 78 | 31 | 42 | 1018.8 | 1019.7 | 0.8 | |
| 04/08:53am | 0.3 | -12.6 | -0.5 | 94 | 0.3 | NW | 57 | 78 | 31 | 42 | 1018.7 | 1019.6 | 0.8 | |
| 04/08:51am | 0.3 | -12.6 | -0.8 | 92 | 0.5 | NW | 57 | 70 | 31 | 38 | 1018.5 | 1019.5 | 0.8 | |
| 04/08:34am | 0.1 | -12.7 | -1.5 | 89 | 0.6 | NW | 56 | 74 | 30 | 40 | 1018.5 | 1019.5 | 0.8 | |
| 04/08:32am | 0.3 | -12.5 | -1.0 | 91 | 0.5 | NW | 56 | 72 | 30 | 39 | 1018.7 | 1019.6 | 0.8 | |
| 04/08:30am | 0.2 | -12.6 | -1.2 | 90 | 0.6 | NW | 56 | 72 | 30 | 39 | 1018.5 | 1019.5 | 0.8 | |
| 04/08:17am | 0.0 | -13.0 | -1.1 | 92 | 0.4 | NW | 57 | 76 | 31 | 41 | 1018.0 | 1019.0 | 0.8 | |
| 04/08:00am | 0.2 | -13.5 | -0.9 | 92 | 0.5 | NW | 61 | 76 | 33 | 41 | 1018.4 | 1019.4 | 0.8 | |
| 04/07:53am | 0.1 | -14.0 | -0.7 | 94 | 0.3 | NW | 63 | 80 | 34 | 43 | 1018.2 | 1019.1 | 0.8 | |
| 04/07:34am | -0.2 | -13.6 | -1.8 | 89 | 0.6 | NW | 59 | 82 | 32 | 44 | 1018.0 | 1019.0 | 0.8 | |
| 04/07:30am | -0.2 | -14.4 | -1.6 | 90 | 0.5 | NW | 63 | 80 | 34 | 43 | 1017.9 | 1018.9 | 0.8 | |
| 04/07:12am | -0.1 | -13.8 | -0.9 | 94 | 0.3 | NW | 61 | 78 | 33 | 42 | 1017.7 | 1018.6 | 0.8 | |
| 04/07:00am | -0.3 | -14.1 | -1.4 | 92 | 0.4 | NW | 61 | 80 | 33 | 43 | 1017.9 | 1018.9 | 0.8 | |
| 04/06:53am | -0.3 | -14.1 | -1.3 | 93 | 0.4 | NW | 61 | 80 | 33 | 43 | 1017.8 | 1018.7 | 0.8 | |
| 04/06:50am | -0.4 | -14.5 | -1.2 | 94 | 0.3 | NW | 63 | 78 | 34 | 42 | 1017.8 | 1018.7 | 0.8 | |
| 04/06:36am | -0.5 | -13.5 | -1.6 | 92 | 0.4 | NW | 57 | 78 | 31 | 42 | 1017.8 | 1018.7 | 0.8 | |
| 04/06:30am | -0.4 | -13.7 | -1.1 | 95 | 0.3 | NW | 59 | 74 | 32 | 40 | 1017.7 | 1018.6 | 0.8 | |
| 04/06:00am | -0.4 | -14.2 | -1.8 | 90 | 0.5 | NW | 61 | 78 | 33 | 42 | 1017.9 | 1018.9 | 0.8 | |
| 04/05:53am | -0.4 | -14.6 | -2.1 | 88 | 0.6 | NW | 63 | 78 | 34 | 42 | 1017.8 | 1018.7 | 0.8 | |
| 04/05:38am | -0.4 | -14.1 | -1.2 | 94 | 0.3 | NW | 61 | 80 | 33 | 43 | 1017.7 | 1018.6 | 0.8 | |
| 04/05:30am | -0.3 | -15.2 | -1.4 | 92 | 0.4 | NW | 67 | 83 | 36 | 45 | 1017.7 | 1018.6 | 0.8 | |
| 04/05:00am | -0.3 | -15.6 | -1.6 | 91 | 0.5 | NW | 69 | 82 | 37 | 44 | 1017.1 | 1018.0 | 0.8 | |
| 04/04:42am | -0.8 | -16.3 | -1.6 | 94 | 0.3 | NW | 70 | 85 | 38 | 46 | 1017.1 | 1018.0 | 0.8 | |
| 04/04:30am | -0.7 | -16.6 | -1.5 | 94 | 0.3 | NW | 72 | 89 | 39 | 48 | 1017.1 | 1018.0 | 0.8 | |
| 04/04:04am | -0.5 | -16.0 | -1.9 | 90 | 0.5 | NW | 70 | 89 | 38 | 48 | 1016.4 | 1017.2 | 0.8 | |
| 04/04:00am | -0.5 | -16.4 | -1.5 | 93 | 0.4 | NW | 72 | 89 | 39 | 48 | 1016.6 | 1017.5 | 0.8 | |
| 04/03:56am | -0.6 | -16.6 | -2.3 | 88 | 0.6 | NW | 72 | 89 | 39 | 48 | 1016.5 | 1017.3 | 0.8 | |
| 04/03:30am | -0.3 | -15.7 | -1.1 | 94 | 0.3 | NW | 70 | 87 | 38 | 47 | 1016.5 | 1017.3 | 0.8 | |
| 04/03:00am | -0.5 | -15.4 | -1.1 | 96 | 0.2 | NW | 67 | 85 | 36 | 46 | 1017.2 | 1018.1 | 0.8 | |
| 04/02:41am | -0.6 | -15.5 | -1.7 | 92 | 0.4 | NW | 67 | 89 | 36 | 48 | 1017.0 | 1017.8 | 0.8 | |
| 04/02:30am | -0.5 | -15.8 | -1.8 | 91 | 0.5 | NW | 69 | 83 | 37 | 45 | 1017.2 | 1018.1 | 0.8 | |
| 04/02:08am | -0.6 | -15.9 | -1.3 | 95 | 0.2 | NW | 69 | 82 | 37 | 44 | 1017.2 | 1018.1 | 0.8 | |
| 04/02:00am | -0.7 | -15.2 | -1.5 | 94 | 0.3 | NW | 65 | 82 | 35 | 44 | 1017.2 | 1018.1 | 0.8 | |
| 04/01:51am | -0.6 | -14.8 | -1.6 | 93 | 0.4 | NW | 63 | 82 | 34 | 44 | 1017.2 | 1018.1 | 0.8 | |
| 04/01:47am | -0.5 | -15.4 | -1.2 | 95 | 0.3 | NW | 67 | 82 | 36 | 44 | 1017.1 | 1018.0 | 0.8 | |
| 04/01:30am | -0.4 | -14.5 | -1.0 | 96 | 0.2 | NW | 63 | 85 | 34 | 46 | 1017.3 | 1018.2 | 0.8 | |
| 04/01:25am | -0.4 | -14.5 | -0.8 | 97 | 0.1 | NW | 63 | 82 | 34 | 44 | 1016.8 | 1017.7 | 0.8 | |
| 04/01:22am | -0.5 | -14.6 | -0.8 | 98 | 0.1 | NW | 63 | 78 | 34 | 42 | 1017.3 | 1018.2 | 0.8 | |
| 04/01:00am | -0.4 | -15.8 | -1.1 | 95 | 0.3 | NW | 70 | 89 | 38 | 48 | 1017.3 | 1018.2 | 0.8 | |
| 04/12:53am | -0.1 | -15.9 | -0.8 | 95 | 0.3 | NW | 72 | 83 | 39 | 45 | 1017.1 | 1018.0 | 0.8 | |
| 04/12:30am | -0.2 | -14.6 | -0.6 | 97 | 0.2 | NW | 65 | 83 | 35 | 45 | 1017.1 | 1018.0 | 0.8 | |
| 04/12:26am | 0.0 | -14.3 | -0.1 | 99 | 0.0 | NW | 65 | 83 | 35 | 45 | 1017.1 | 1018.0 | 0.8 | |
| 04/12:24am | 0.0 | -15.1 | -0.1 | 99 | 0.0 | NW | 69 | 83 | 37 | 45 | 1017.2 | 1018.1 | 0.8 | |
| 04/12:00am | 0.2 | -14.1 | -0.1 | 98 | 0.1 | NW | 65 | 87 | 35 | 47 | 1017.4 | 1018.3 | 0.8 | |
| Date/Time EST |
Temp °C |
App Temp °C |
Dew Point °C |
Rel Hum % |
Delta-T °C |
Wind | Press QNH hPa |
Press MSL hPa |
Rain since 9am mm |
|||||
|---|---|---|---|---|---|---|---|---|---|---|---|---|---|---|
| Dir | Spd km/h |
Gust km/h |
Spd kts |
Gust kts |
||||||||||
| 03/11:34pm | 0.1 | -14.6 | -0.2 | 98 | 0.1 | NW | 67 | 85 | 36 | 46 | 1017.6 | 1018.5 | 0.8 | |
| 03/11:32pm | 0.2 | -14.9 | -0.1 | 98 | 0.1 | NW | 69 | 85 | 37 | 46 | 1017.4 | 1018.3 | 0.8 | |
| 03/11:30pm | 0.2 | -14.9 | -0.1 | 98 | 0.1 | NW | 69 | 85 | 37 | 46 | 1017.6 | 1018.5 | 0.8 | |
| 03/11:00pm | 0.2 | -14.5 | 0.1 | 99 | 0.0 | NW | 67 | 85 | 36 | 46 | 1017.4 | 1018.3 | 0.8 | |
| 03/10:30pm | 0.1 | -13.9 | -0.5 | 96 | 0.3 | NW | 63 | 82 | 34 | 44 | 1017.3 | 1018.2 | 0.8 | |
| 03/10:24pm | 0.2 | -13.8 | -0.2 | 97 | 0.2 | NW | 63 | 82 | 34 | 44 | 1017.3 | 1018.2 | 0.8 | |
| 03/10:21pm | 0.1 | -14.2 | 0.0 | 99 | 0.0 | NW | 65 | 82 | 35 | 44 | 1017.3 | 1018.2 | 0.8 | |
| 03/10:00pm | 0.4 | -14.3 | 0.3 | 99 | 0.0 | NW | 67 | 83 | 36 | 45 | 1017.4 | 1018.3 | 0.8 | |
| 03/09:50pm | 0.7 | -12.0 | 0.6 | 99 | 0.0 | NW | 57 | 78 | 31 | 42 | 1017.6 | 1018.5 | 0.6 | |
| 03/09:30pm | 0.3 | -13.2 | 0.2 | 99 | 0.0 | NW | 61 | 78 | 33 | 42 | 1017.4 | 1018.3 | 0.6 | |
| 03/09:08pm | 0.2 | -12.6 | 0.1 | 99 | 0.0 | NW | 57 | 72 | 31 | 39 | 1017.7 | 1018.6 | 0.6 | |
| 03/09:00pm | 0.1 | -13.5 | 0.0 | 99 | 0.0 | NW | 61 | 74 | 33 | 40 | 1017.4 | 1018.3 | 0.6 | |
| 03/08:49pm | 0.0 | -14.0 | -0.3 | 98 | 0.1 | NW | 63 | 82 | 34 | 44 | 1017.4 | 1018.3 | 0.6 | |
| 03/08:30pm | -0.1 | -14.9 | -0.7 | 96 | 0.2 | NW | 67 | 78 | 36 | 42 | 1017.1 | 1018.0 | 0.6 | |
| 03/08:08pm | -0.4 | -13.7 | -0.5 | 99 | 0.0 | NW | 59 | 78 | 32 | 42 | 1017.1 | 1018.0 | 0.6 | |
| 03/08:00pm | -0.5 | -13.4 | -0.8 | 98 | 0.1 | NW | 57 | 74 | 31 | 40 | 1017.0 | 1017.8 | 0.6 | |
| 03/07:45pm | -0.6 | -14.4 | -1.3 | 95 | 0.2 | NW | 61 | 74 | 33 | 40 | 1016.8 | 1017.7 | 0.6 | |
| 03/07:30pm | -0.3 | -14.0 | -0.6 | 98 | 0.1 | NW | 61 | 80 | 33 | 43 | 1016.4 | 1017.2 | 0.6 | |
| 03/07:21pm | 0.0 | -13.2 | -0.1 | 99 | 0.0 | NW | 59 | 80 | 32 | 43 | 1016.4 | 1017.2 | 0.6 | |
| 03/07:17pm | 0.2 | -13.0 | 0.2 | 100 | 0.0 | NW | 59 | 76 | 32 | 41 | 1016.2 | 1017.1 | 0.6 | |
| 03/07:00pm | 0.5 | -12.6 | 0.4 | 99 | 0.0 | NW | 59 | 78 | 32 | 42 | 1015.9 | 1016.7 | 0.6 | |
| 03/06:30pm | 0.2 | -13.0 | -0.2 | 97 | 0.2 | NW | 59 | 82 | 32 | 44 | 1015.6 | 1016.4 | 0.6 | |
| 03/06:22pm | 0.2 | -13.1 | -0.4 | 96 | 0.3 | NW | 59 | 78 | 32 | 42 | 1015.7 | 1016.6 | 0.6 | |
| 03/06:05pm | -0.1 | -14.5 | -0.7 | 96 | 0.2 | NW | 65 | 78 | 35 | 42 | 1015.5 | 1016.3 | 0.6 | |
| 03/06:00pm | -0.1 | -14.6 | -0.9 | 94 | 0.3 | NW | 65 | 82 | 35 | 44 | 1015.3 | 1016.1 | 0.6 | |
| 03/05:53pm | -0.1 | -14.2 | -0.8 | 95 | 0.3 | NW | 63 | 82 | 34 | 44 | 1015.4 | 1016.2 | 0.6 | |
| 03/05:51pm | 0.0 | -14.0 | -0.4 | 97 | 0.2 | NW | 63 | 80 | 34 | 43 | 1015.3 | 1016.1 | 0.6 | |
| 03/05:31pm | -0.1 | -13.8 | -0.7 | 96 | 0.2 | NW | 61 | 85 | 33 | 46 | 1015.0 | 1015.8 | 0.6 | |
| 03/05:30pm | -0.1 | -13.4 | -0.5 | 97 | 0.2 | NW | 59 | 76 | 32 | 41 | 1015.1 | 1015.9 | 0.4 | |
| 03/05:25pm | 0.0 | -13.2 | -0.3 | 98 | 0.1 | NW | 59 | 74 | 32 | 40 | 1015.0 | 1015.8 | 0.4 | |
| 03/05:00pm | 0.1 | -11.4 | -0.2 | 98 | 0.1 | WNW | 50 | 72 | 27 | 39 | 1015.6 | 1016.4 | 0.4 | |
| 03/04:30pm | 0.3 | -11.9 | 0.2 | 99 | 0.0 | WNW | 54 | 72 | 29 | 39 | 1015.4 | 1016.2 | 0.4 | |
| 03/04:00pm | 0.5 | -10.9 | 0.5 | 100 | 0.0 | NW | 50 | 72 | 27 | 39 | 1015.4 | 1016.2 | 0.4 | |
| 03/03:30pm | 0.6 | -11.2 | 0.6 | 100 | 0.0 | NW | 52 | 65 | 28 | 35 | 1014.3 | 1015.0 | 0.4 | |
| 03/03:00pm | 0.6 | -10.8 | 0.6 | 100 | 0.0 | NW | 50 | 72 | 27 | 39 | - | - | 0.2 | |
| 03/02:35pm | 0.7 | -12.4 | 0.7 | 100 | 0.0 | NNW | 59 | 82 | 32 | 44 | - | - | 0.2 | |
| 03/02:30pm | 0.6 | -12.5 | 0.6 | 100 | 0.0 | NNW | 59 | 72 | 32 | 39 | - | - | 0.2 | |
| 03/02:27pm | 0.7 | -12.4 | 0.7 | 100 | 0.0 | NNW | 59 | 72 | 32 | 39 | - | - | 0.2 | |
| 03/02:06pm | 0.7 | -13.1 | 0.7 | 100 | 0.0 | NNW | 63 | 91 | 34 | 49 | - | - | 0.2 | |
| 03/02:04pm | 0.7 | -13.1 | 0.7 | 100 | 0.0 | NW | 63 | 76 | 34 | 41 | - | - | 0.0 | |
| 03/02:00pm | 0.8 | -13.0 | 0.8 | 100 | 0.0 | NNW | 63 | 76 | 34 | 41 | - | - | 0.0 | |
| 03/01:43pm | 0.5 | -12.6 | 0.5 | 100 | 0.0 | NNW | 59 | 74 | 32 | 40 | - | - | 0.0 | |
| 03/01:30pm | 0.6 | -9.7 | 0.6 | 100 | 0.0 | NW | 44 | 67 | 24 | 36 | - | - | 0.0 | |
| 03/01:21pm | 0.6 | -10.4 | 0.6 | 100 | 0.0 | NW | 48 | 61 | 26 | 33 | - | - | 0.0 | |
| 03/01:00pm | 0.7 | -10.3 | 0.7 | 100 | 0.0 | NW | 48 | 65 | 26 | 35 | - | - | 0.0 | |
| 03/12:30pm | 0.8 | -9.8 | 0.7 | 99 | 0.0 | NW | 46 | 67 | 25 | 36 | - | - | 0.0 | |
| 03/12:20pm | 0.9 | -11.2 | 0.8 | 99 | 0.0 | NW | 54 | 72 | 29 | 39 | - | - | 0.0 | |
| 03/12:10pm | 0.9 | -11.8 | 0.8 | 99 | 0.0 | NW | 57 | 72 | 31 | 39 | - | - | 0.0 | |
| 03/12:00pm | 0.9 | -11.8 | 0.6 | 98 | 0.1 | NNW | 57 | 76 | 31 | 41 | - | - | 0.0 | |
| 03/11:56am | 0.9 | -10.9 | 0.5 | 97 | 0.2 | NW | 52 | 76 | 28 | 41 | - | - | 0.0 | |
| 03/11:53am | 1.3 | -9.7 | 0.7 | 96 | 0.3 | NW | 48 | 65 | 26 | 35 | - | - | 0.0 | |
| 03/11:33am | 2.2 | -8.4 | 0.9 | 91 | 0.6 | NW | 46 | 69 | 25 | 37 | - | - | 0.0 | |
| 03/11:30am | 1.9 | -9.5 | 0.7 | 92 | 0.5 | NW | 50 | 80 | 27 | 43 | - | - | 0.0 | |
| 03/11:23am | 2.5 | -8.6 | 0.1 | 84 | 1.0 | NW | 48 | 80 | 26 | 43 | - | - | 0.0 | |
| 03/11:00am | 2.9 | -6.9 | -0.4 | 79 | 1.4 | NW | 41 | 57 | 22 | 31 | - | - | 0.0 | |
| 03/10:30am | 3.5 | -8.0 | -0.3 | 76 | 1.6 | NW | 50 | 74 | 27 | 40 | - | - | 0.0 | |
| 03/10:02am | 2.8 | -8.0 | -0.3 | 80 | 1.3 | NW | 46 | 65 | 25 | 35 | - | - | 0.0 | |
| 03/10:00am | 3.1 | -7.3 | -0.2 | 79 | 1.4 | NW | 44 | 57 | 24 | 31 | - | - | 0.0 | |
| 03/09:43am | 2.4 | -9.9 | -0.2 | 83 | 1.1 | NW | 54 | 67 | 29 | 36 | - | - | 0.0 | |
| 03/09:30am | 1.9 | -10.8 | -0.2 | 86 | 0.9 | NW | 56 | 74 | 30 | 40 | - | - | 0.0 | |
| 03/09:00am | 1.2 | -13.1 | 0.5 | 95 | 0.3 | NNW | 65 | 89 | 35 | 48 | - | - | 22.0 | |
| 03/08:30am | 1.7 | -11.9 | 0.1 | 89 | 0.7 | NW | 61 | 85 | 33 | 46 | - | - | 22.0 | |
| 03/08:00am | 2.8 | -12.0 | -0.5 | 79 | 1.4 | NW | 67 | 91 | 36 | 49 | - | - | 22.0 | |
| 03/07:30am | 1.2 | -14.0 | 0.5 | 95 | 0.3 | NNW | 70 | 91 | 38 | 49 | - | - | 22.0 | |
| 03/07:13am | 1.1 | -13.1 | 0.7 | 97 | 0.2 | NW | 65 | 83 | 35 | 45 | - | - | 22.0 | |
| 03/07:00am | 1.0 | -14.3 | -0.1 | 92 | 0.5 | NNW | 70 | 87 | 38 | 47 | - | - | 22.0 | |
| 03/06:59am | 1.1 | -14.2 | -0.4 | 90 | 0.6 | NNW | 70 | 87 | 38 | 47 | - | - | 22.0 | |
| 03/06:30am | 1.3 | -12.0 | -0.6 | 87 | 0.8 | NW | 59 | 82 | 32 | 44 | - | - | 22.0 | |
| 03/06:00am | 1.7 | -10.3 | 1.4 | 98 | 0.1 | NW | 54 | 78 | 29 | 42 | - | - | 22.0 | |
| 03/05:46am | 2.0 | -10.8 | 0.4 | 89 | 0.7 | NW | 57 | 80 | 31 | 43 | - | - | 22.0 | |
| 03/05:30am | 2.1 | -8.4 | 1.5 | 96 | 0.3 | NW | 46 | 69 | 25 | 37 | - | - | 22.0 | |
| 03/05:00am | 2.4 | -8.7 | 2.4 | 100 | 0.0 | WNW | 50 | 70 | 27 | 38 | - | - | 22.0 | |
| 03/04:57am | 2.6 | -8.5 | 2.6 | 100 | 0.0 | WNW | 50 | 67 | 27 | 36 | - | - | 22.0 | |
| 03/04:30am | 3.0 | -5.1 | 3.0 | 100 | 0.0 | WNW | 35 | 65 | 19 | 35 | - | - | 21.4 | |
| 03/04:13am | 2.9 | -6.8 | 2.9 | 100 | 0.0 | W | 43 | 69 | 23 | 37 | - | - | 21.0 | |
| 03/04:10am | 3.2 | -6.4 | 3.2 | 100 | 0.0 | W | 43 | 69 | 23 | 37 | - | - | 21.0 | |
| 03/04:00am | 3.0 | -6.7 | 3.0 | 100 | 0.0 | WNW | 43 | 70 | 23 | 38 | - | - | 20.8 | |
| 03/03:30am | 3.0 | -7.2 | 3.0 | 100 | 0.0 | WNW | 46 | 69 | 25 | 37 | - | - | 20.0 | |
| 03/03:23am | 2.9 | -8.1 | 2.9 | 100 | 0.0 | WNW | 50 | 106 | 27 | 57 | - | - | 19.8 | |
| 03/03:00am | 3.3 | -9.4 | 3.3 | 100 | 0.0 | NW | 59 | 91 | 32 | 49 | - | - | 19.2 | |
| 03/02:30am | 3.6 | -9.4 | 3.6 | 100 | 0.0 | NW | 61 | 87 | 33 | 47 | - | - | 17.8 | |
| 03/02:06am | 4.0 | -8.1 | 4.0 | 100 | 0.0 | NW | 57 | 80 | 31 | 43 | - | - | 16.0 | |
| 03/02:00am | 3.8 | -9.1 | 3.8 | 100 | 0.0 | NW | 61 | 104 | 33 | 56 | - | - | 15.6 | |
| 03/01:56am | 3.7 | -9.7 | 3.6 | 99 | 0.0 | NW | 63 | 104 | 34 | 56 | - | - | 14.8 | |
| 03/01:30am | 4.0 | -7.6 | 4.0 | 100 | 0.0 | NW | 54 | 78 | 29 | 42 | - | - | 10.2 | |
| 03/01:00am | 3.9 | -8.1 | 3.9 | 100 | 0.0 | NW | 56 | 98 | 30 | 53 | - | - | 8.6 | |
| 03/12:30am | 3.7 | -7.9 | 3.7 | 100 | 0.0 | NW | 54 | 85 | 29 | 46 | - | - | 6.8 | |
| 03/12:00am | 3.7 | -7.2 | 3.7 | 100 | 0.0 | NW | 50 | 80 | 27 | 43 | - | - | 6.6 | |
| Date/Time EST |
Temp °C |
App Temp °C |
Dew Point °C |
Rel Hum % |
Delta-T °C |
Wind | Press QNH hPa |
Press MSL hPa |
Rain since 9am mm |
|||||
|---|---|---|---|---|---|---|---|---|---|---|---|---|---|---|
| Dir | Spd km/h |
Gust km/h |
Spd kts |
Gust kts |
||||||||||
| 02/11:30pm | 3.7 | -8.5 | 3.6 | 99 | 0.0 | NW | 57 | 91 | 31 | 49 | - | - | 5.0 | |
| 02/11:00pm | 3.7 | -9.6 | 3.7 | 100 | 0.0 | NW | 63 | 89 | 34 | 48 | - | - | 2.6 | |
| 02/10:30pm | 4.7 | -7.3 | 4.6 | 99 | 0.0 | NW | 57 | 83 | 31 | 45 | - | - | 1.6 | |
| 02/10:00pm | 3.9 | -9.8 | 3.6 | 98 | 0.1 | NW | 65 | 100 | 35 | 54 | - | - | 0.8 | |
| 02/09:30pm | 4.2 | -9.6 | 3.0 | 92 | 0.6 | NW | 65 | 91 | 35 | 49 | - | - | 0.0 | |
| 02/09:00pm | 4.0 | -9.8 | 3.4 | 96 | 0.3 | NW | 65 | 100 | 35 | 54 | - | - | 0.0 | |
| 02/08:30pm | 4.0 | -10.6 | 2.8 | 92 | 0.6 | NW | 69 | 95 | 37 | 51 | - | - | 0.0 | |
| 02/08:00pm | 3.9 | -9.1 | 3.5 | 97 | 0.2 | NW | 61 | 95 | 33 | 51 | - | - | 0.0 | |
| 02/07:30pm | 4.2 | -8.9 | 3.2 | 93 | 0.5 | NW | 61 | 85 | 33 | 46 | - | - | 0.0 | |
| 02/07:00pm | 4.1 | -9.5 | 2.5 | 89 | 0.7 | NW | 63 | 93 | 34 | 50 | - | - | 0.0 | |
| 02/06:30pm | 4.3 | -9.5 | 3.1 | 92 | 0.6 | NW | 65 | 91 | 35 | 49 | - | - | 0.0 | |
| 02/06:00pm | 3.9 | -8.1 | 3.5 | 97 | 0.2 | NW | 56 | 82 | 30 | 44 | - | - | 0.0 | |
| 02/05:30pm | 4.1 | -9.3 | 3.2 | 94 | 0.4 | NW | 63 | 87 | 34 | 47 | - | - | 0.0 | |
| 02/05:25pm | 3.9 | -8.2 | 3.3 | 96 | 0.3 | NW | 56 | 82 | 30 | 44 | - | - | 0.0 | |
| 02/05:15pm | 4.3 | -9.1 | 3.4 | 94 | 0.4 | WNW | 63 | 89 | 34 | 48 | - | - | 0.0 | |
| 02/05:13pm | 4.1 | -9.3 | 3.2 | 94 | 0.4 | WNW | 63 | 89 | 34 | 48 | - | - | 0.0 | |
| 02/05:00pm | 4.3 | -10.9 | 2.8 | 90 | 0.7 | WNW | 72 | 91 | 39 | 49 | - | - | 0.0 | |
| 02/04:51pm | 4.2 | -11.0 | 2.7 | 90 | 0.7 | WNW | 72 | 91 | 39 | 49 | - | - | 0.0 | |
| 02/04:41pm | 4.1 | -9.6 | 3.7 | 97 | 0.2 | NW | 65 | 93 | 35 | 50 | - | - | 0.0 | |
| 02/04:30pm | 4.1 | -8.0 | 3.4 | 95 | 0.3 | NW | 56 | 74 | 30 | 40 | - | - | 0.0 | |
| 02/04:00pm | 4.1 | -7.9 | 3.8 | 98 | 0.1 | NW | 56 | 78 | 30 | 42 | 1014.3 | 1015.0 | 0.0 | |
| 02/03:30pm | 4.3 | -8.0 | 3.1 | 92 | 0.6 | NW | 57 | 80 | 31 | 43 | 1014.5 | 1015.3 | 0.0 | |
| 02/03:00pm | 4.2 | -8.8 | 3.3 | 94 | 0.4 | NW | 61 | 85 | 33 | 46 | 1014.4 | 1015.2 | 0.0 | |
| 02/02:30pm | 4.3 | -9.5 | 3.3 | 93 | 0.5 | NW | 65 | 85 | 35 | 46 | 1014.8 | 1015.6 | 0.0 | |
| 02/02:00pm | 4.3 | -10.0 | 2.8 | 90 | 0.7 | NW | 67 | 91 | 36 | 49 | 1014.7 | 1015.4 | 0.0 | |
| 02/01:30pm | 4.4 | -8.0 | 2.4 | 87 | 0.9 | NW | 57 | 80 | 31 | 43 | 1015.1 | 1015.9 | 0.0 | |
| 02/01:00pm | 5.0 | -7.7 | 3.2 | 88 | 0.8 | NW | 59 | 78 | 32 | 42 | 1015.4 | 1016.2 | 0.0 | |
| 02/12:30pm | 4.1 | -9.1 | 2.6 | 90 | 0.7 | NW | 61 | 85 | 33 | 46 | 1015.9 | 1016.7 | 0.0 | |
| 02/12:00pm | 3.9 | -10.1 | 2.3 | 89 | 0.7 | NW | 65 | 93 | 35 | 50 | 1015.6 | 1016.4 | 0.0 | |
| 02/11:30am | 3.8 | -8.4 | 2.5 | 91 | 0.6 | NW | 56 | 80 | 30 | 43 | 1016.7 | 1017.6 | 0.0 | |
| 02/11:00am | 3.7 | -7.0 | 2.7 | 93 | 0.5 | NW | 48 | 70 | 26 | 38 | 1017.3 | 1018.2 | 0.0 | |
| 02/10:30am | 3.8 | -8.5 | 3.1 | 95 | 0.3 | NW | 57 | 78 | 31 | 42 | 1017.1 | 1018.0 | 0.0 | |
| 02/10:00am | 3.2 | -11.0 | 2.9 | 98 | 0.1 | NW | 67 | 89 | 36 | 48 | 1016.5 | 1017.3 | 0.0 | |
| 02/09:30am | 3.3 | -10.9 | 3.3 | 100 | 0.0 | NW | 67 | 91 | 36 | 49 | 1016.2 | 1017.1 | 0.0 | |
| 02/09:00am | 3.4 | -8.7 | 3.4 | 100 | 0.0 | NW | 56 | 85 | 30 | 46 | 1016.0 | 1016.8 | 0.8 | |
| 02/08:30am | 3.4 | -8.9 | 3.4 | 100 | 0.0 | NW | 57 | 82 | 31 | 44 | 1016.5 | 1017.3 | 0.8 | |
| 02/08:00am | 2.9 | -9.3 | 2.9 | 100 | 0.0 | NW | 56 | 76 | 30 | 41 | 1015.5 | 1016.3 | 0.8 | |
| 02/07:30am | 2.9 | -11.4 | 2.8 | 99 | 0.0 | NW | 67 | 85 | 36 | 46 | 1015.0 | 1015.8 | 0.8 | |
| 02/07:29am | 2.9 | -11.4 | 2.8 | 99 | 0.0 | NW | 67 | 85 | 36 | 46 | 1014.8 | 1015.6 | 0.8 | |
| 02/07:27am | 2.9 | -11.7 | 2.8 | 99 | 0.0 | NNW | 69 | 85 | 37 | 46 | 1014.8 | 1015.6 | 0.8 | |
| 02/07:02am | 2.9 | -12.7 | 2.6 | 98 | 0.1 | NNW | 74 | 96 | 40 | 52 | - | - | 0.8 | |
| 02/07:00am | 2.9 | -13.1 | 2.6 | 98 | 0.1 | NW | 76 | 98 | 41 | 53 | - | - | 0.8 | |
| 02/06:52am | 3.0 | -11.7 | 2.6 | 97 | 0.2 | NW | 69 | 98 | 37 | 53 | - | - | 0.8 | |
| 02/06:30am | 2.6 | -9.6 | 2.5 | 99 | 0.0 | NW | 56 | 78 | 30 | 42 | 1014.3 | 1015.0 | 0.8 | |
| 02/06:00am | 2.7 | -9.2 | 2.4 | 98 | 0.1 | NW | 54 | 76 | 29 | 41 | 1014.9 | 1015.7 | 0.8 | |
| 02/05:30am | 3.0 | -10.6 | 2.3 | 95 | 0.3 | NW | 63 | 83 | 34 | 45 | 1015.0 | 1015.8 | 0.8 | |
| 02/05:00am | 3.0 | -11.8 | 2.1 | 94 | 0.4 | NW | 69 | 87 | 37 | 47 | 1014.5 | 1015.3 | 0.6 | |
| 02/04:30am | 2.7 | -10.1 | 2.4 | 98 | 0.1 | NW | 59 | 80 | 32 | 43 | 1014.5 | 1015.3 | 0.6 | |
| 02/04:00am | 2.6 | -10.6 | 2.6 | 100 | 0.0 | NW | 61 | 87 | 33 | 47 | 1014.3 | 1015.0 | 0.6 | |
| 02/03:30am | 2.8 | -12.0 | 2.8 | 100 | 0.0 | NW | 70 | 96 | 38 | 52 | - | - | 0.6 | |
| 02/03:00am | 2.9 | -11.0 | 2.9 | 100 | 0.0 | NW | 65 | 83 | 35 | 45 | - | - | 0.6 | |
| 02/02:30am | 2.8 | -11.1 | 2.8 | 100 | 0.0 | NW | 65 | 83 | 35 | 45 | 1014.4 | 1015.2 | 0.6 | |
| 02/02:20am | 2.9 | -10.2 | 2.9 | 100 | 0.0 | NW | 61 | 76 | 33 | 41 | 1014.3 | 1015.0 | 0.4 | |
| 02/02:00am | 2.7 | -8.0 | 2.7 | 100 | 0.0 | NW | 48 | 63 | 26 | 34 | 1016.4 | 1017.2 | 0.4 | |
| 02/01:30am | 2.6 | -7.3 | 2.5 | 99 | 0.0 | NW | 44 | 69 | 24 | 37 | 1016.7 | 1017.6 | 0.4 | |
| 02/01:16am | 2.7 | -8.4 | 2.6 | 99 | 0.0 | NW | 50 | 78 | 27 | 42 | 1016.7 | 1017.6 | 0.4 | |
| 02/01:00am | 2.7 | -9.7 | 2.6 | 99 | 0.0 | NW | 57 | 82 | 31 | 44 | 1016.4 | 1017.2 | 0.4 | |
| 02/12:30am | 2.6 | -9.3 | 2.0 | 96 | 0.3 | NW | 54 | 83 | 29 | 45 | 1016.0 | 1016.8 | 0.0 | |
| 02/12:23am | 3.3 | -11.5 | 2.0 | 91 | 0.6 | NW | 69 | 95 | 37 | 51 | 1016.0 | 1016.8 | 0.0 | |
| 02/12:11am | 3.1 | -12.2 | 2.5 | 96 | 0.3 | NNW | 72 | 96 | 39 | 52 | 1014.5 | 1015.3 | 0.0 | |
| 02/12:00am | 2.8 | -10.4 | 2.5 | 98 | 0.1 | NW | 61 | 83 | 33 | 45 | 1015.1 | 1015.9 | 0.0 | |
| Date/Time EST |
Temp °C |
App Temp °C |
Dew Point °C |
Rel Hum % |
Delta-T °C |
Wind | Press QNH hPa |
Press MSL hPa |
Rain since 9am mm |
||||
|---|---|---|---|---|---|---|---|---|---|---|---|---|---|
| Dir | Spd km/h |
Gust km/h |
Spd kts |
Gust kts |
|||||||||
| 01/11:39pm | 3.1 | -11.2 | 2.4 | 95 | 0.3 | NW | 67 | 91 | 36 | 49 | 1015.4 | 1016.2 | 0.0 |
| 01/11:30pm | 3.4 | -12.7 | 2.1 | 91 | 0.6 | NNW | 76 | 91 | 41 | 49 | 1014.9 | 1015.7 | 0.0 |
| 01/11:00pm | 3.4 | -11.0 | 2.1 | 91 | 0.6 | NW | 67 | 83 | 36 | 45 | 1014.8 | 1015.6 | 0.0 |
| 01/10:30pm | 3.2 | -10.8 | 2.2 | 93 | 0.5 | NW | 65 | 87 | 35 | 47 | 1015.3 | 1016.1 | 0.0 |
| 01/10:00pm | 3.1 | -11.3 | 2.1 | 93 | 0.4 | NW | 67 | 96 | 36 | 52 | 1015.9 | 1016.7 | 0.0 |
| 01/09:30pm | 3.2 | -10.8 | 2.2 | 93 | 0.5 | NW | 65 | 91 | 35 | 49 | 1015.7 | 1016.6 | 0.0 |
| 01/09:00pm | 3.3 | -11.5 | 2.1 | 92 | 0.5 | NW | 69 | 106 | 37 | 57 | 1016.4 | 1017.2 | 0.0 |
| 01/08:30pm | 3.3 | -11.9 | 2.6 | 95 | 0.3 | NW | 72 | 102 | 39 | 55 | 1016.4 | 1017.2 | 0.0 |
| 01/08:27pm | 3.4 | -11.5 | 2.7 | 95 | 0.3 | NW | 70 | 102 | 38 | 55 | 1014.8 | 1015.6 | 0.0 |
| 01/08:00pm | 3.4 | -11.5 | 2.5 | 94 | 0.4 | NW | 70 | 104 | 38 | 56 | 1016.8 | 1017.7 | 0.0 |
| 01/07:30pm | 3.6 | -11.6 | 2.9 | 95 | 0.3 | NW | 72 | 96 | 39 | 52 | 1016.2 | 1017.1 | 0.0 |
| 01/07:14pm | 3.9 | -12.2 | 2.1 | 88 | 0.8 | NW | 76 | 106 | 41 | 57 | 1016.0 | 1016.8 | 0.0 |
| 01/07:04pm | 3.9 | -10.8 | 2.7 | 92 | 0.6 | NW | 69 | 106 | 37 | 57 | 1015.9 | 1016.7 | 0.0 |
| 01/07:00pm | 3.7 | -10.2 | 2.7 | 93 | 0.5 | NW | 65 | 87 | 35 | 47 | 1017.4 | 1018.3 | 0.0 |
| 01/06:30pm | 3.7 | -11.5 | 2.8 | 94 | 0.4 | NW | 72 | 91 | 39 | 49 | 1017.3 | 1018.2 | 0.0 |
| 01/06:00pm | 3.7 | -9.4 | 2.8 | 94 | 0.4 | NW | 61 | 82 | 33 | 44 | 1018.0 | 1019.0 | 0.0 |
| 01/05:30pm | 4.0 | -8.5 | 2.0 | 87 | 0.9 | NNW | 57 | 80 | 31 | 43 | 1017.8 | 1018.7 | 0.0 |
| 01/05:13pm | 4.0 | -8.3 | 2.0 | 87 | 0.9 | NNW | 56 | 76 | 30 | 41 | 1018.7 | 1019.6 | 0.0 |
| 01/05:03pm | 4.1 | -6.8 | 1.5 | 83 | 1.2 | NNW | 48 | 78 | 26 | 42 | 1019.1 | 1020.1 | 0.0 |
| 01/05:00pm | 3.7 | -6.3 | 2.1 | 89 | 0.7 | NNW | 44 | 59 | 24 | 32 | 1019.7 | 1020.8 | 0.0 |
| 01/04:40pm | 3.8 | -7.0 | 2.2 | 89 | 0.7 | NNW | 48 | 63 | 26 | 34 | 1019.9 | 1020.9 | 0.0 |
| 01/04:30pm | 3.9 | -5.9 | 2.1 | 88 | 0.8 | NNW | 43 | 61 | 23 | 33 | 1019.7 | 1020.8 | 0.0 |
| 01/04:29pm | 3.7 | -6.1 | 2.2 | 90 | 0.7 | NNW | 43 | 61 | 23 | 33 | 1020.0 | 1021.0 | 0.0 |
| 01/04:21pm | 3.8 | -7.0 | 2.0 | 88 | 0.8 | NNW | 48 | 59 | 26 | 32 | 1020.2 | 1021.3 | 0.0 |
| 01/04:00pm | 3.8 | -7.1 | 1.4 | 84 | 1.1 | NW | 48 | 67 | 26 | 36 | 1020.0 | 1021.0 | 0.0 |
| 01/03:52pm | 3.7 | -8.2 | 1.9 | 88 | 0.8 | NW | 54 | 72 | 29 | 39 | 1020.1 | 1021.1 | 0.0 |
| 01/03:51pm | 3.6 | -8.7 | 1.8 | 88 | 0.8 | NNW | 56 | 72 | 30 | 39 | 1019.7 | 1020.8 | 0.0 |
| 01/03:30pm | 3.7 | -8.8 | 2.1 | 89 | 0.7 | NW | 57 | 76 | 31 | 41 | 1019.6 | 1020.6 | 0.0 |
| 01/03:00pm | 3.8 | -9.5 | 1.8 | 87 | 0.9 | NW | 61 | 78 | 33 | 42 | 1018.9 | 1019.9 | 0.0 |
| 01/02:30pm | 3.8 | -9.2 | 1.4 | 84 | 1.1 | NW | 59 | 83 | 32 | 45 | 1019.0 | 1020.0 | 0.0 |
| 01/02:00pm | 4.0 | -9.7 | 1.5 | 84 | 1.1 | NNW | 63 | 82 | 34 | 44 | 1019.6 | 1020.6 | 0.0 |
| 01/01:30pm | 4.0 | -10.2 | 1.2 | 82 | 1.2 | NW | 65 | 89 | 35 | 48 | 1019.5 | 1020.5 | 0.0 |
Other formats
Comma delimited format used in spreadsheet applications
http://www.bom.gov.au/fwo/IDN60801/IDN60801.95909.axf
JavaScript Object Notation format (JSON) in row-major order
http://www.bom.gov.au/fwo/IDN60801/IDN60801.95909.json
Data quality
Most of these data are generated automatically and are frequently updated. Quality checks on data are not normally performed. It is possible for incorrect values to appear. Refer to information at About Latest Weather Observations and please check the disclaimer before using these data.
